Portada
METAR-TAF:

METAR-TAF

Aeropuertos :

Kaolack, Senegal

latitud: 14-08N, longitud: 016-04W, altitud: 6 m

Observación

El informe se hizo hace 54 minutos, a las 03:00 UTC
Viento 6 kt del norte
Temperatura 26°C
Humedad 94%
Presión 1012 hPa
Visibilidad 10 km o más
sin nubes por debajo de 1500 m y sin presencia de cumulonimbus.

METAR: GOOK 240300Z 36006KT CAVOK 26/25 Q1012

Hora: 03:54 (03:54 UTC)


TAF: falta

Observaciones y pronósticos meteorológicos de más de 4000 aeropuertos (mensajes METAR y TAF).

Los puntos amarillos y rojos representan las estaciones disponibles.

Ponga el ratón en el punto deseado para ver el nombre de la estación.

Haga clic para ver las observaciones y los pronósticos meteorológicos.

Para cambiar el mapa : haga clic en los botones verdes con una cruz de color negro para hacer un zoom, en el botón verde con un guión para alejar o en las flechas verdes para mapas adyacentes.


METAR-TAF: